星链-5415 (STARLINK-5415 )

导读 | 星芒AI

STARLINK-5415 是 SpaceX Starlink 项目中的一颗低轨通信卫星,属于第 54 批发射的星链卫星群。该卫星于 2023 年发射,运行在约 550 公里的近地轨道上,旨在为全球提供高速互联网服务。Starlink 卫星采用先进推进系统和激光通信技术,具备自动避障功能,以减少与空间碎片的碰撞风险。该项目致力于构建覆盖全球的卫星互联网网络,尤其服务于偏远地区。STARLINK-5415 的运行有助于提升 Starlink 网络的稳定性和覆盖范围。

基本信息
目录编号:
54796
目录名称:
STARLINK-5415
国际标识:
2022-175AQ
轨道中心:
EARTH
卫星名称:
星链-5415
卫星全名:
星链-5415 (STARLINK-5415 )
卫星状态:
在轨 (已飞行1053 天)
发射日期:
2022-12-17 UTC
国别 :
美国 (US)
星等 :
--
轨道信息
数据来源 国际轨道数据 AOE轨道数据
星历时间 2025-11-04T10:27:21+0800
16小时前
查看轨道信息
2025-10-29T21:00:00+0800
6天前
查看轨道信息
半长轴 6917.883km 6917.875km
偏心率 0.0001614 0.0001365
轨道倾角 53.218° 53.215°
近地点辐角 86.816° 92.540°
升交点赤经 232.655° 257.621°
平近点角 273.302° 286.674°
近地点 538.631km 538.795km
远地点 540.865km 540.685km
周期 95.438分钟 95.437分钟
每日圈数 15.088394 15.088418
详细信息
固有亮度:
5
最大亮度:
2.5
卫星平台:
Starlink v1.5
覆盖范围:
全球
运营商:
太空探索技术公司
运营商所在国:
美国
制造商(研发单位):
太空探索技术公司
制造商所在国:
美国
使用方式:
暂无
卫星简介
星链(Starlink)计划是由太空探索技术公司(SpaceX)提出的一个巨型低轨卫星互联网星座项目,计划在2019年至2024年间在太空搭建由约1.2万颗卫星组成的“星链”网络,其中1584颗将部署在地球上空550千米处的近地轨道,并从2020年开始工作。该卫星仍在工作。
2D轨道图
3D轨道图
轨道高度分析图
轨道倾角分析图
轨道综合分析图
查看轨道综合分析图